Location: Martley
(52.2333°N, 2.3667°W)
Time: 12:51:25
(UTC+00:00)

NOAA 6 - Pass Details

Date: 11 December 2019
Orbit: 772 x 787 km, 98.7° (Epoch: 17 January)

Event Time Altitude Azimuth Distance (km) Brightness Sun altitude
Rises 06:00:07 0° 15° (NNE) 3,263 7.3 -18.3°
Reaches altitude 10° 06:02:26 10° 17° (NNE) 2,332 6.5 -18.0°
Maximum altitude 06:07:36 84° 104° (ESE) 787 4.1 -17.2°
Drops below altitude 10° 06:12:43 10° 194° (SSW) 2,320 6.5 -16.5°
Sets 06:15:02 0° 195° (SSW) 3,245 7.3 -16.1°
